sat.trackr.live / text

‹ back to catalog

STARLINK-5019

NORAD 55407 · 2023-014S

PAYLOAD ACTIVE UNKNOWN

§ Identity

Operator
Country
US
Launch date
2023-01-31
Launch site
AFWTR
Launch vehicle
Mass (kg)
RCS (m²)

Purposes: comms

External: N2YO · Heavens-Above · Gunter

§ Orbital elements

Epoch: 2026-05-25T04:47:12.214752Z

Period
96.11 min
Inclination
69.9994°
Eccentricity
0.0003437
Mean motion
14.98332672 rev/d
Perigee alt
569.7 km
Apogee alt
574.4 km
Semi-major
6,950.2 km
B*
4.6925e-5
RAAN
231.6330°
Arg perigee
269.7357°
Mean anomaly
90.3408°
Rev number
18,351

§ Raw data

STARLINK-50191 55407U 23014S   26145.19944693  .00000467  00000+0  46925-4 0  99902 55407  69.9994 231.6330 0003437 269.7357  90.3408 14.98332672183510

JSON: /api/v1/satellites/55407 · /tle

For live sub-satellite position, see the globe view (requires WebGL).

§ Visibility from observer

Set your observer location to see the next 7 days of passes ≥ 10°. The values pass through the URL so the page stays shareable.

No JS? Fill the form by hand. The geolocation button needs JavaScript.